[[{"header":{"parameterUnit":"m.s-1","parameterCategory":1,"la1":30.2991,"la2":30.254,"lo1":-89.0895,"lo2":-89.0444,"dy":0.0017,"dx":0.0017,"nx":28,"ny":28,"refTime":"2025-11-26T09:00:00:Z","depth":0,"parameterNumber":2,"parameterNumberName":"U-component_of_WINDS"},"data":[0,0,0,0,0,0,0,0,0,0,0,0,0,0,0,0,0,0,0,0,0,0,0,0,0,0,0,0,0,0,0,0,0,0,0,0,0,0,0,0,0,0,0,0,0,0,0,0,0,0,0,0,0,0,0,0,0,0,0.5041,0.5041,0,0.502,0.5019,0.5019,0.5029,0.503,0.503,0.5031,0.5006,0.5005,0.5004,0,0,0,0,0,0,0,0,0,0,0,0,0,0.5089,0.5088,0.5041,0.5041,0.504,0.502,0.5019,0.5019,0.5029,0.503,0.503,0.5031,0.5007,0.5005,0.5004,0,0,0,0,0,0,0,0,0,0,0,0,0,0.5068,0.5088,0.5041,0.5043,0.5043,0.502,0.5019,0.5019,0.5029,0.503,0.5031,0.5031,0.5007,0.5006,0.5004,0.4977,0,0,0.4998,0.4998,0,0,0,0,0,0,0,0,0.5069,0.5066,0.5043,0.5043,0.5043,0.5028,0.5027,0.5005,0.5029,0.5034,0.5031,0.5032,0.5013,0.5011,0.5005,0.4975,0.4974,0.4998,0.4997,0.4997,0.4996,0,0,0,0,0,0,0,0.507,0.5067,0.5032,0.5043,0.5042,0.5044,0.5042,0.5023,0.5019,0.5034,0.5034,0.5032,0.5013,0.5006,0.5004,0.4974,0.4998,0.4997,0.4996,0.4995,0.4922,0.4921,0,0,0,0,0,0,0.5072,0.5068,0.5033,0.5032,0.5058,0.5043,0.5041,0.5032,0.5019,0.5018,0.5031,0.5033,0.5009,0.5006,0.5003,0.497,0.4997,0.4995,0.4994,0.4923,0.4922,0.4921,0,0,0,0,0,0,0.5073,0.5069,0.5034,0.505,0.5046,0.5041,0.5031,0.5031,0.5025,0.5017,0.5017,0.5025,0.5009,0.5006,0.4983,0.497,0.4994,0.4993,0.4924,0.4922,0.4921,0.4904,0,0,0,0,0,0,0.5074,0.5069,0.5059,0.505,0.5045,0.5015,0.503,0.503,0.5022,0.5023,0.5012,0.5011,0.501,0.4986,0.4982,0.4968,0.4991,0.4925,0.4923,0.4922,0.4906,0.4903,0.49,0,0,0,0,0,0.5076,0.5054,0.5058,0.5054,0.5032,0.5014,0.5011,0.5011,0.5021,0.501,0.5006,0.5011,0.4972,0.4984,0.4979,0.4964,0.4926,0.4924,0.4922,0.4908,0.4903,0.49,0,0,0,0,0,0,0.5061,0.5053,0.5057,0.5032,0.5024,0.5016,0.5002,0.5007,0.4995,0.4996,0.4997,0.4994,0.4971,0.4965,0.4978,0.4938,0.495,0.4947,0.4941,0.4937,0.4934,0.4935,0.499,0,0,0,0,0,0.5055,0.5041,0.5035,0.5013,0.5009,0.5007,0.4998,0.5,0.499,0.4987,0.498,0.4971,0.4957,0.4947,0.4933,0.4906,0.4904,0.4894,0.4891,0.4888,0.4885,0.487,0.4866,0.4914,0.4914,0.4914,0,0,0.5041,0.5036,0.5027,0.501,0.5004,0.4989,0.5003,0.4987,0.4976,0.4984,0.4962,0.4958,0.4947,0.4922,0.4911,0.4917,0.4871,0.4886,0.4884,0.4882,0.4868,0.4863,0.4859,0.4913,0.4913,0.4913,0,0,0.5009,0.5004,0.4986,0.4979,0.497,0.4969,0.4964,0.4956,0.4953,0.4932,0.4938,0.4925,0.49,0.4892,0.4885,0.4852,0.4856,0.4848,0.483,0.4816,0.4812,0.4809,0.4797,0.4792,0.4845,0.4845,0.4845,0,0.4994,0.4972,0.4975,0.4959,0.4951,0.496,0.4941,0.4934,0.492,0.4915,0.4922,0.4892,0.4886,0.4859,0.4851,0.4845,0.484,0.4848,0.4813,0.481,0.4806,0.4794,0.479,0.4844,0.4844,0.4844,0.4845,0,0.4953,0.4939,0.4925,0.4912,0.4904,0.4886,0.4886,0.4876,0.4879,0.4877,0.4855,0.4848,0.4833,0.4828,0.4829,0.4801,0.4806,0.4813,0.4826,0.4801,0.4789,0.4785,0.4843,0.4843,0.4843,0.4844,0,0,0.4909,0.49,0.4894,0.4889,0.488,0.4869,0.4852,0.4838,0.483,0.4821,0.4806,0.4786,0.4794,0.4785,0.4787,0.4775,0.4749,0.4784,0.4783,0.4776,0.4717,0.471,0.4705,0.4752,0.4751,0.4751,0.4717,0,0.4875,0.4846,0.4849,0.4821,0.4807,0.4816,0.4801,0.4794,0.4792,0.478,0.4778,0.4763,0.4774,0.4769,0.4758,0.4754,0.4736,0.4757,0.4737,0.4737,0.4738,0.4699,0.4692,0.466,0.4713,0.4712,0.4712,0,0.4832,0.4822,0.4793,0.4787,0.4782,0.4768,0.4757,0.4745,0.4737,0.4737,0.4729,0.4733,0.4715,0.473,0.4706,0.472,0.4713,0.471,0.4709,0.4705,0.4721,0.4694,0.4651,0.4645,0.4705,0.4706,0.4706,0,0.4801,0.4781,0.4761,0.4757,0.4749,0.474,0.4736,0.4729,0.4721,0.4712,0.4706,0.4694,0.4687,0.4678,0.4678,0.4689,0.4654,0.4668,0.4652,0.4652,0.4642,0.4642,0.4596,0.464,0.464,0.464,0.464,0,0.4763,0.4744,0.4747,0.4735,0.4715,0.4719,0.4698,0.4696,0.469,0.4677,0.4684,0.4672,0.4674,0.4661,0.4662,0.4641,0.4638,0.4637,0.4637,0.4635,0.4635,0.4629,0.4631,0.4639,0.4639,0.4639,0.464,0,0.4724,0.4725,0.4704,0.47,0.4698,0.4683,0.4679,0.4667,0.4667,0.4651,0.4647,0.4646,0.4632,0.4632,0.4616,0.4616,0.4591,0.4594,0.4593,0.4594,0.4577,0.4578,0.4523,0.4516,0.4566,0.4566,0.4565,0,0.4698,0.4684,0.4679,0.4671,0.4668,0.4655,0.4647,0.4651,0.4643,0.4634,0.4623,0.461,0.4599,0.4576,0.4574,0.4561,0.4563,0.4545,0.4561,0.456,0.4562,0.4562,0.456,0.4541,0.4541,0.454,0.454,0,0.4652,0.4654,0.4644,0.4633,0.4625,0.4616,0.4609,0.4602,0.4605,0.4596,0.4582,0.4574,0.4558,0.4545,0.4533,0.4529,0.4534,0.4536,0.4531,0.4528,0.4528,0.4527,0.4583,0.4536,0.4536,0.4537,0.4537,0.4537,0.4619,0.4607,0.4602,0.4589,0.4585,0.4578,0.4567,0.4566,0.4555,0.4542,0.4546,0.453,0.4524,0.4509,0.4504,0.4492,0.4498,0.4491,0.4489,0.4487,0.4485,0.4532,0.449,0.449,0.449,0.449,0.449,0,0.4572,0.457,0.4559,0.4549,0.454,0.4548,0.4541,0.4532,0.4518,0.4512,0.4502,0.4486,0.4474,0.4471,0.4459,0.445,0.4452,0.4446,0.4446,0.4445,0.448,0.4485,0.4445,0.4445,0.4445,0.4445,0.4445,0.4445,0.4547,0.4527,0.4529,0.4507,0.4505,0.449,0.4485,0.4479,0.4474,0.4457,0.4447,0.4446,0.4441,0.4429,0.4418,0.4418,0.4412,0.4405,0.4406,0.4438,0.4443,0.4447,0.4451,0.4404,0.4404,0.4371,0.4371,0.4371]},{"header":{"parameterUnit":"m.s-1","parameterCategory":1,"la1":30.2991,"la2":30.254,"lo1":-89.0895,"lo2":-89.0444,"dy":0.0017,"dx":0.0017,"nx":28,"ny":28,"refTime":"2025-11-26T09:00:00:Z","depth":0,"parameterNumber":3,"parameterNumberName":"V-component_of_WINDS"},"data":[0,0,0,0,0,0,0,0,0,0,0,0,0,0,0,0,0,0,0,0,0,0,0,0,0,0,0,0,0,0,0,0,0,0,0,0,0,0,0,0,0,0,0,0,0,0,0,0,0,0,0,0,0,0,0,0,0,0,-6.0969,-6.097,0,-6.1093,-6.1095,-6.1096,-6.1015,-6.1011,-6.1007,-6.1004,-6.1126,-6.1133,-6.1139,0,0,0,0,0,0,0,0,0,0,0,0,0,-6.0657,-6.0663,-6.0969,-6.097,-6.0972,-6.1093,-6.1095,-6.1096,-6.1015,-6.1011,-6.1006,-6.1002,-6.1124,-6.1132,-6.114,0,0,0,0,0,0,0,0,0,0,0,0,0,-6.0788,-6.0665,-6.0968,-6.0946,-6.0945,-6.1093,-6.1095,-6.1097,-6.1016,-6.1011,-6.1005,-6.1,-6.1121,-6.1131,-6.1141,-6.1315,0,0,-6.1172,-6.1176,0,0,0,0,0,0,0,0,-6.078,-6.0799,-6.0948,-6.0948,-6.0947,-6.1033,-6.1029,-6.117,-6.1018,-6.0989,-6.1004,-6.0997,-6.1099,-6.1111,-6.1146,-6.1321,-6.1326,-6.1173,-6.1179,-6.1183,-6.1186,0,0,0,0,0,0,0,-6.0771,-6.0793,-6.1018,-6.095,-6.095,-6.0928,-6.0941,-6.1056,-6.1074,-6.0991,-6.0986,-6.1002,-6.1098,-6.1137,-6.1149,-6.1328,-6.1173,-6.1181,-6.1188,-6.1192,-6.1653,-6.1659,0,0,0,0,0,0,-6.0765,-6.0786,-6.1014,-6.1021,-6.0849,-6.0939,-6.0953,-6.1011,-6.1073,-6.1077,-6.1007,-6.0998,-6.1122,-6.1137,-6.1153,-6.1362,-6.1183,-6.1193,-6.1198,-6.1647,-6.1655,-6.1661,0,0,0,0,0,0,-6.0758,-6.0786,-6.1009,-6.0903,-6.0929,-6.095,-6.1016,-6.1016,-6.1055,-6.1084,-6.1086,-6.1043,-6.1118,-6.1138,-6.1276,-6.1365,-6.1197,-6.1206,-6.164,-6.1649,-6.1658,-6.1782,0,0,0,0,0,0,-6.075,-6.0784,-6.0852,-6.0905,-6.0935,-6.1132,-6.1022,-6.1023,-6.1073,-6.1063,-6.1119,-6.1123,-6.1116,-6.1262,-6.1286,-6.1376,-6.1214,-6.1632,-6.1644,-6.1655,-6.177,-6.1794,-6.1815,0,0,0,0,0,-6.0739,-6.088,-6.0855,-6.0883,-6.102,-6.1137,-6.1155,-6.1145,-6.1081,-6.1148,-6.1167,-6.1121,-6.1351,-6.1276,-6.1303,-6.1397,-6.1626,-6.1641,-6.1654,-6.1759,-6.1789,-6.1814,0,0,0,0,0,0,-6.0834,-6.0886,-6.086,-6.1023,-6.1077,-6.1123,-6.1208,-6.1176,-6.1248,-6.1235,-6.1218,-6.1231,-6.1376,-6.14,-6.1316,-6.157,-6.1478,-6.1498,-6.1549,-6.1578,-6.16,-6.1591,-6.1223,0,0,0,0,0,-6.0875,-6.0967,-6.1007,-6.1146,-6.1175,-6.1188,-6.1238,-6.1226,-6.128,-6.1302,-6.1331,-6.1384,-6.1468,-6.1524,-6.1603,-6.1772,-6.1784,-6.185,-6.1873,-6.1891,-6.1909,-6.2001,-6.2032,-6.1707,-6.1707,-6.1707,0,0,-6.0958,-6.0998,-6.1057,-6.1167,-6.1207,-6.1302,-6.1207,-6.1311,-6.1381,-6.1317,-6.145,-6.1473,-6.1531,-6.1686,-6.1756,-6.1711,-6.2001,-6.1909,-6.1923,-6.1931,-6.2019,-6.2049,-6.2077,-6.1717,-6.1715,-6.1713,0,0,-6.116,-6.1199,-6.1321,-6.1364,-6.1427,-6.1434,-6.1464,-6.1516,-6.153,-6.1663,-6.1618,-6.1699,-6.1845,-6.1889,-6.193,-6.2149,-6.211,-6.2175,-6.2293,-6.2383,-6.2409,-6.2432,-6.2511,-6.2539,-6.2193,-6.2193,-6.2193,0,-6.1256,-6.1398,-6.1387,-6.1495,-6.1545,-6.1493,-6.1616,-6.1657,-6.1742,-6.1777,-6.1726,-6.1909,-6.1944,-6.2109,-6.2163,-6.2197,-6.223,-6.2169,-6.2407,-6.2429,-6.245,-6.2525,-6.2555,-6.22,-6.22,-6.2199,-6.2198,0,-6.1513,-6.1613,-6.1703,-6.179,-6.1849,-6.1964,-6.1968,-6.203,-6.2013,-6.2025,-6.2162,-6.2203,-6.229,-6.2328,-6.2311,-6.2491,-6.2461,-6.2409,-6.2317,-6.2489,-6.2559,-6.2588,-6.2211,-6.2209,-6.2206,-6.2205,0,0,-6.1778,-6.1858,-6.1891,-6.193,-6.1997,-6.2073,-6.2185,-6.2272,-6.2326,-6.2386,-6.2479,-6.2604,-6.2557,-6.2604,-6.2591,-6.267,-6.2843,-6.2608,-6.2609,-6.2651,-6.3045,-6.3085,-6.3118,-6.2817,-6.2822,-6.2827,-6.304,0,-6.1985,-6.2183,-6.2176,-6.2361,-6.2453,-6.2406,-6.2503,-6.2554,-6.2569,-6.2648,-6.2663,-6.2753,-6.2682,-6.2711,-6.2787,-6.2806,-6.2922,-6.279,-6.2903,-6.2908,-6.2892,-6.3155,-6.3198,-6.3397,-6.3067,-6.3072,-6.3076,0,-6.2252,-6.2324,-6.2519,-6.2573,-6.2611,-6.2699,-6.2779,-6.2856,-6.2912,-6.2917,-6.2971,-6.2946,-6.3059,-6.2963,-6.3118,-6.3029,-6.3075,-6.3091,-6.3098,-6.3109,-6.3003,-6.3174,-6.346,-6.3491,-6.3119,-6.3115,-6.3112,0,-6.2427,-6.2573,-6.2708,-6.2743,-6.2809,-6.2872,-6.2902,-6.2953,-6.3007,-6.3076,-6.311,-6.319,-6.3235,-6.3297,-6.3295,-6.3225,-6.3452,-6.3356,-6.3459,-6.346,-6.351,-6.3507,-6.3809,-6.3538,-6.3537,-6.3537,-6.3536,0,-6.2659,-6.278,-6.2788,-6.2872,-6.3006,-6.2996,-6.3129,-6.3152,-6.3198,-6.3284,-6.3247,-6.3329,-6.332,-6.3402,-6.34,-6.3529,-6.3549,-6.3556,-6.3554,-6.356,-6.3559,-6.359,-6.3577,-6.3545,-6.3543,-6.3541,-6.354,0,-6.2878,-6.2888,-6.3033,-6.3085,-6.31,-6.3197,-6.324,-6.3319,-6.3331,-6.3441,-6.3466,-6.3484,-6.3579,-6.3582,-6.369,-6.3689,-6.3847,-6.3829,-6.3829,-6.3826,-6.3929,-6.392,-6.4262,-6.4307,-6.4006,-6.4009,-6.4011,0,-6.3026,-6.3118,-6.3181,-6.3237,-6.3272,-6.3362,-6.3417,-6.3411,-6.3469,-6.3541,-6.3611,-6.3703,-6.3776,-6.3929,-6.395,-6.4033,-6.4017,-6.4132,-6.4029,-6.4033,-6.402,-6.4016,-6.4025,-6.4152,-6.4155,-6.4158,-6.416,0,-6.3287,-6.3288,-6.337,-6.3455,-6.3522,-6.3587,-6.3647,-6.3695,-6.3696,-6.3763,-6.386,-6.3917,-6.4029,-6.412,-6.42,-6.4229,-6.4196,-6.4192,-6.422,-6.4228,-6.4225,-6.4229,-6.3884,-6.4184,-6.4182,-6.418,-6.4179,-6.4178,-6.3476,-6.3557,-6.3614,-6.3706,-6.3752,-6.381,-6.3887,-6.3909,-6.3991,-6.4083,-6.4073,-6.4182,-6.4236,-6.4341,-6.4377,-6.446,-6.4421,-6.4462,-6.4472,-6.4483,-6.4495,-6.4211,-6.4475,-6.4474,-6.4473,-6.4473,-6.4472,0,-6.3737,-6.3772,-6.3857,-6.3944,-6.4017,-6.398,-6.4046,-6.4108,-6.4205,-6.4259,-6.4333,-6.4445,-6.4533,-6.4563,-6.4649,-6.471,-6.4697,-6.4733,-6.4729,-6.4736,-6.4524,-6.4492,-6.4743,-6.4742,-6.4742,-6.4742,-6.4742,-6.4742,-6.3881,-6.4016,-6.4024,-6.4181,-6.4214,-6.4322,-6.4363,-6.4416,-6.4459,-6.4587,-6.4662,-6.4681,-6.4725,-6.4814,-6.4893,-6.49,-6.4933,-6.4977,-6.4976,-6.4778,-6.4751,-6.4725,-6.4695,-6.4984,-6.4984,-6.5181,-6.5183,-6.5185]}]]